Time,TemperatureF,DewpointF,PressureIn,WindDirection,WindDirectionDegrees,WindSpeedMPH,WindSpeedGustMPH,Humidity,HourlyPrecipIn,Conditions,Clouds,dailyrainin,SoftwareType,DateUTC
2013-02-23 06:33:00,32.0,31.8,30.01,NNW,337,1.1,-999.0,99,-99.99,,,0.00,Acu-Link.com,2013-02-23 11:33:00,
2013-02-23 06:49:00,31.8,31.6,30.01,NNW,337,0.0,-999.0,99,-99.99,,,0.00,Acu-Link.com,2013-02-23 11:49:00,
2013-02-23 07:04:00,31.6,31.4,29.99,NNE,22,2.2,-999.0,99,-99.99,,,0.00,Acu-Link.com,2013-02-23 12:04:00,
2013-02-23 07:19:00,31.6,31.4,29.98,NNW,337,0.0,-999.0,99,-99.99,,,0.00,Acu-Link.com,2013-02-23 12:19:00,
2013-02-23 07:34:00,31.6,31.4,29.98,North,0,2.7,-999.0,99,-99.99,,,0.00,Acu-Link.com,2013-02-23 12:34:00,
2013-02-23 07:52:00,31.8,31.6,29.98,NNW,337,1.7,-999.0,99,-99.99,,,0.00,Acu-Link.com,2013-02-23 12:52:00,
2013-02-23 08:09:00,32.0,31.8,29.97,NE,45,1.1,-999.0,99,-99.99,,,0.00,Acu-Link.com,2013-02-23 13:09:00,
2013-02-23 08:24:00,32.2,32.0,29.96,NE,45,1.1,-999.0,99,-99.99,,,0.01,Acu-Link.com,2013-02-23 13:24:00,
2013-02-23 08:39:00,32.4,32.2,29.95,NE,45,2.7,-999.0,99,-99.99,,,0.01,Acu-Link.com,2013-02-23 13:39:00,
2013-02-23 08:54:00,32.5,32.3,29.95,NE,45,1.7,-999.0,99,-99.99,,,0.01,Acu-Link.com,2013-02-23 13:54:00,
2013-02-23 09:10:00,32.7,32.5,29.94,NE,45,1.7,-999.0,99,-99.99,,,0.02,Acu-Link.com,2013-02-23 14:10:00,
2013-02-23 09:25:00,32.9,32.7,29.93,NNW,337,3.2,-999.0,99,-99.99,,,0.02,Acu-Link.com,2013-02-23 14:25:00,
2013-02-23 09:40:00,33.4,33.1,29.93,NNW,337,2.2,-999.0,99,-99.99,,,0.02,Acu-Link.com,2013-02-23 14:40:00,
2013-02-23 09:56:00,35.2,34.9,29.93,NNE,22,2.2,-999.0,99,-99.99,,,0.02,Acu-Link.com,2013-02-23 14:56:00,
2013-02-23 10:11:00,34.0,33.7,29.92,North,0,1.1,-999.0,99,-99.99,,,0.02,Acu-Link.com,2013-02-23 15:11:00,
2013-02-23 10:26:00,34.0,33.7,29.91,NNE,22,3.7,-999.0,99,-99.99,,,0.03,Acu-Link.com,2013-02-23 15:26:00,
2013-02-23 10:41:00,34.0,33.7,29.91,North,0,3.2,-999.0,99,-99.99,,,0.03,Acu-Link.com,2013-02-23 15:41:00,
2013-02-23 10:56:00,34.7,34.4,29.90,NNW,337,6.3,-999.0,99,-99.99,,,0.03,Acu-Link.com,2013-02-23 15:56:00,
2013-02-23 11:12:00,34.7,34.4,29.89,NNE,22,3.7,-999.0,99,-99.99,,,0.03,Acu-Link.com,2013-02-23 16:12:00,
2013-02-23 11:27:00,35.4,35.1,29.89,NNE,22,3.2,-999.0,99,-99.99,,,0.03,Acu-Link.com,2013-02-23 16:27:00,
2013-02-23 11:42:00,35.8,35.5,29.88,North,0,6.3,-999.0,99,-99.99,,,0.03,Acu-Link.com,2013-02-23 16:42:00,
2013-02-23 11:57:00,36.1,35.8,29.88,NE,45,6.8,-999.0,99,-99.99,,,0.03,Acu-Link.com,2013-02-23 16:57:00,
2013-02-23 12:12:00,36.7,36.4,29.87,ENE,67,7.3,-999.0,99,-99.99,,,0.03,Acu-Link.com,2013-02-23 17:12:00,
2013-02-23 12:43:00,37.8,37.5,29.86,NE,45,4.7,-999.0,99,-99.99,,,0.03,Acu-Link.com,2013-02-23 17:43:00,
2013-02-23 12:58:00,38.7,38.4,29.85,NNE,22,2.7,-999.0,99,-99.99,,,0.03,Acu-Link.com,2013-02-23 17:58:00,
2013-02-23 13:13:00,39.6,39.3,29.84,NE,45,2.2,-999.0,99,-99.99,,,0.03,Acu-Link.com,2013-02-23 18:13:00,
2013-02-23 13:29:00,39.6,39.3,29.84,North,0,4.7,-999.0,99,-99.99,,,0.03,Acu-Link.com,2013-02-23 18:29:00,
2013-02-23 13:44:00,40.5,40.2,29.83,NNE,22,3.7,-999.0,99,-99.99,,,0.03,Acu-Link.com,2013-02-23 18:44:00,
2013-02-23 13:59:00,40.6,40.3,29.82,NE,45,4.2,-999.0,99,-99.99,,,0.03,Acu-Link.com,2013-02-23 18:59:00,
2013-02-23 14:14:00,41.2,40.9,29.81,NNE,22,6.8,-999.0,99,-99.99,,,0.03,Acu-Link.com,2013-02-23 19:14:00,
2013-02-23 14:29:00,41.5,41.2,29.81,NE,45,2.2,-999.0,99,-99.99,,,0.03,Acu-Link.com,2013-02-23 19:29:00,
2013-02-23 14:45:00,41.9,41.6,29.80,ENE,67,4.7,-999.0,99,-99.99,,,0.03,Acu-Link.com,2013-02-23 19:45:00,
2013-02-23 15:00:00,42.3,42.0,29.79,North,0,7.3,-999.0,99,-99.99,,,0.03,Acu-Link.com,2013-02-23 20:00:00,
2013-02-23 15:15:00,42.6,42.3,29.78,ENE,67,2.7,-999.0,99,-99.99,,,0.03,Acu-Link.com,2013-02-23 20:15:00,
2013-02-23 15:30:00,42.3,42.0,29.79,North,0,4.2,-999.0,99,-99.99,,,0.03,Acu-Link.com,2013-02-23 20:30:00,
2013-02-23 15:45:00,42.6,42.3,29.78,NE,45,4.2,-999.0,99,-99.99,,,0.03,Acu-Link.com,2013-02-23 20:45:00,
2013-02-23 16:01:00,42.3,42.0,29.78,NNE,22,1.7,-999.0,99,-99.99,,,0.03,Acu-Link.com,2013-02-23 21:01:00,
2013-02-23 16:16:00,42.3,42.0,29.77,NE,45,5.8,-999.0,99,-99.99,,,0.03,Acu-Link.com,2013-02-23 21:16:00,
2013-02-23 16:31:00,41.9,41.6,29.76,NNE,22,3.7,-999.0,99,-99.99,,,0.03,Acu-Link.com,2013-02-23 21:31:00,
2013-02-23 16:46:00,42.1,41.8,29.76,NE,45,3.2,-999.0,99,-99.99,,,0.03,Acu-Link.com,2013-02-23 21:46:00,
2013-02-23 17:01:00,41.7,41.4,29.76,NE,45,5.3,-999.0,99,-99.99,,,0.03,Acu-Link.com,2013-02-23 22:01:00,
2013-02-23 17:17:00,41.5,41.2,29.76,North,0,5.3,-999.0,99,-99.99,,,0.03,Acu-Link.com,2013-02-23 22:17:00,
2013-02-23 17:32:00,41.2,40.9,29.76,NE,45,4.2,-999.0,99,-99.99,,,0.03,Acu-Link.com,2013-02-23 22:32:00,
2013-02-23 17:47:00,41.0,40.7,29.76,NE,45,3.2,-999.0,99,-99.99,,,0.03,Acu-Link.com,2013-02-23 22:47:00,
2013-02-23 18:02:00,40.8,40.5,29.75,NE,45,5.3,-999.0,99,-99.99,,,0.03,Acu-Link.com,2013-02-23 23:02:00,
2013-02-23 18:18:00,40.6,40.3,29.75,ENE,67,3.2,-999.0,99,-99.99,,,0.03,Acu-Link.com,2013-02-23 23:18:00,
2013-02-23 18:33:00,40.5,40.2,29.76,NNE,22,2.7,-999.0,99,-99.99,,,0.03,Acu-Link.com,2013-02-23 23:33:00,
2013-02-23 18:48:00,40.3,40.0,29.76,NE,45,2.2,-999.0,99,-99.99,,,0.03,Acu-Link.com,2013-02-23 23:48:00,
2013-02-23 19:03:00,39.9,39.6,29.75,NE,45,2.2,-999.0,99,-99.99,,,0.03,Acu-Link.com,2013-02-24 00:03:00,
2013-02-23 19:18:00,39.7,39.4,29.77,NNE,22,3.7,-999.0,99,-99.99,,,0.03,Acu-Link.com,2013-02-24 00:18:00,
2013-02-23 19:34:00,39.7,39.4,29.75,NE,45,5.3,-999.0,99,-99.99,,,0.03,Acu-Link.com,2013-02-24 00:34:00,
2013-02-23 19:49:00,39.6,39.3,29.75,NE,45,4.7,-999.0,99,-99.99,,,0.03,Acu-Link.com,2013-02-24 00:49:00,
2013-02-23 20:04:00,39.6,39.3,29.75,NE,45,5.8,-999.0,99,-99.99,,,0.03,Acu-Link.com,2013-02-24 01:04:00,
2013-02-23 20:19:00,39.6,39.3,29.74,NNE,22,3.7,-999.0,99,-99.99,,,0.03,Acu-Link.com,2013-02-24 01:19:00,
2013-02-23 20:34:00,39.4,39.1,29.74,NE,45,3.2,-999.0,99,-99.99,,,0.03,Acu-Link.com,2013-02-24 01:34:00,
2013-02-23 20:50:00,39.2,38.9,29.73,NE,45,2.2,-999.0,99,-99.99,,,0.03,Acu-Link.com,2013-02-24 01:50:00,
2013-02-23 21:05:00,39.2,38.9,29.74,NNW,337,2.7,-999.0,99,-99.99,,,0.03,Acu-Link.com,2013-02-24 02:05:00,
2013-02-23 21:20:00,39.2,38.9,29.74,NNE,22,2.7,-999.0,99,-99.99,,,0.03,Acu-Link.com,2013-02-24 02:20:00,
2013-02-23 21:36:00,39.0,38.7,29.74,NNE,22,2.7,-999.0,99,-99.99,,,0.03,Acu-Link.com,2013-02-24 02:36:00,
2013-02-23 21:51:00,38.8,38.5,29.74,NNW,337,2.7,-999.0,99,-99.99,,,0.03,Acu-Link.com,2013-02-24 02:51:00,
2013-02-23 22:06:00,38.8,38.5,29.73,NE,45,3.7,-999.0,99,-99.99,,,0.03,Acu-Link.com,2013-02-24 03:06:00,
2013-02-23 22:21:00,38.7,38.4,29.73,NE,45,2.7,-999.0,99,-99.99,,,0.03,Acu-Link.com,2013-02-24 03:21:00,
2013-02-23 22:36:00,38.7,38.4,29.72,NNE,22,4.2,-999.0,99,-99.99,,,0.03,Acu-Link.com,2013-02-24 03:36:00,
2013-02-23 22:52:00,38.8,38.5,29.71,NNE,22,2.7,-999.0,99,-99.99,,,0.03,Acu-Link.com,2013-02-24 03:52:00,
2013-02-23 23:07:00,38.8,38.5,29.73,NNE,22,4.7,-999.0,99,-99.99,,,0.03,Acu-Link.com,2013-02-24 04:07:00,
2013-02-23 23:22:00,38.8,38.5,29.72,NNE,22,3.2,-999.0,99,-99.99,,,0.03,Acu-Link.com,2013-02-24 04:22:00,
2013-02-23 23:37:00,38.8,38.5,29.72,NNE,22,2.7,-999.0,99,-99.99,,,0.03,Acu-Link.com,2013-02-24 04:37:00,
2013-02-23 23:52:00,38.8,38.5,29.71,NE,45,2.7,-999.0,99,-99.99,,,0.03,Acu-Link.com,2013-02-24 04:52:00,